Regional Weather Roundup
Issued by NWS

Home | Current Version | Previous Version | Text Only | Print | Product List | Glossary On
Versions: 1 2 3 4 5 6 7 8 9 10 11 12 13 14 15 16 17 18 19 20 21 22 23 24 25 26 27 28 29 30 31 32 33 34 35 36 37 38 39 40 41 42 43 44 45 46 47 48 49 50
000
ASUS45 KTFX 301310
RWRMT
MONTANA REGIONAL WEATHER ROUNDUP
NATIONAL WEATHER SERVICE GREAT FALLS MT
700 AM MDT SAT MAY 30 2015

NOTE: "FAIR" INDICATES FEW OR NO CLOUDS BELOW 12000 FEET WITH NO
SIGNIFICANT WEATHER AND/OR OBSTRUCTIONS TO VISIBILITY.

MTZ001>007-043-301400-
WEST OF THE DIVIDE

CITY           SKY/WX    TMP DP  RH WIND       PRES   REMARKS
KALISPELL      CLOUDY    54  52  93 S5        30.01R
MISSOULA       LGT RAIN  50  48  93 W3        30.05R
BUTTE          PTSUNNY   46  42  86 SE3       30.11S
MULLAN PASS    CLOUDY    50  44  80 CALM      30.08S
DEER LODGE       N/A     52  46  82 NE5       30.08F
EUREKA           N/A     54  52  94 CALM      30.02
HAMILTON         N/A     55  45  67 W2        30.03R
LIBBY            N/A     54  54 100 CALM      30.01F VSB 1/2
PLAINS           N/A     56  52  86 W2        30.02R
RONAN            N/A     57  51  80 E5        30.07R
$$

MTZ008-052>055-301400-
SOUTHWEST MONTANA

CITY           SKY/WX    TMP DP  RH WIND       PRES   REMARKS
BOZEMAN        PTSUNNY   50  48  93 N5        30.08F
DILLON         MOSUNNY   50  45  83 S9        30.10S
W YELLOWSTONE  SUNNY     37  36  93 CALM      30.22S
THREE FORKS      N/A     53  28  38 CALM      30.07S
TWIN BRIDGES     N/A     50  46  85 SE5       30.08S
$$

MTZ009-010-012-014-046-048-049-054-301400-
EAST SLOPES AND CENTRAL MONTANA

CITY           SKY/WX    TMP DP  RH WIND       PRES   REMARKS
CUT BANK       PTSUNNY   46  40  79 NE10      30.04S
GREAT FALLS    MOSUNNY   53  47  79 SE7       30.01S
MALMSTROM AFB  SUNNY     48  46  92 SE3       30.01F
HELENA         MOSUNNY   53  48  83 SW5       30.04F
CONRAD           N/A     45  45 100 NE1       30.04F
$$

MTZ011-013-016-021-045-047-050-051-301400-
NORTH CENTRAL MONTANA

CITY           SKY/WX    TMP DP  RH WIND       PRES   REMARKS
HAVRE          PTSUNNY   50  37  61 E13       30.03F
LEWISTOWN      PTSUNNY   48  41  76 E9        30.06S
N BAR RANCH    FAIR      45  39  81 N3        30.11S
CHINOOK          N/A     48  37  66 E14       30.08S
FORT BENTON      N/A     48  37  66 E9        30.04R
$$

MTZ017>020-022>027-061-062-301400-
NORTHEAST MONTANA

CITY           SKY/WX    TMP DP  RH WIND       PRES   REMARKS
GLASGOW        MOSUNNY   47  36  65 E20       30.18S
JORDAN           N/A     49  38  65 E13       30.14F
SIDNEY         PTSUNNY   45  36  70 CALM      30.30S
WOLF POINT     PTSUNNY   44  36  73 E8        30.24S
MALTA            N/A     48  36  63 NE8       30.09F
PLENTYWOOD       N/A     43  36  75 SE15      30.29S
POPLAR           N/A     45  36  70 E14       30.26S
SCOBEY           N/A     42  31  65 E15       30.21F
$$

MTZ028>42-056>058-301400-
SOUTHCENTRAL AND SOUTHEAST MONTANA

CITY           SKY/WX    TMP DP  RH WIND       PRES   REMARKS
BAKER          MOSUNNY   42  36  79 SE18      30.26F
BILLINGS       MOSUNNY   50  44  80 N5        30.09F
LIVINGSTON     CLOUDY    52  47  83 SE6       30.08F
MILES CITY     PTSUNNY   49  38  65 VRB7      30.17F
BIG TIMBER       N/A     52  48  87 CALM      30.11S
LAUREL           N/A     50  45  83 CALM      30.07S
ROUNDUP          N/A     46  39  76 CALM      30.00S
$$

REGIONAL REPORTS...DAKOTAS

CITY           SKY/WX    TMP DP  RH WIND       PRES   REMARKS
WILLISTON      PTSUNNY   43  35  73 SE15G21   30.33R
MINOT          MOSUNNY   39  30  70 E15       30.40S WCI  31
DICKINSON      MOSUNNY   38  34  85 SE14      30.31R WCI  30
BEACH          FAIR      41  39  93 SE16      30.28S
CROSBY         FAIR      41  32  70 SE15      30.36S
WATFORD CITY   FAIR      39  36  87 SE18      30.31S WCI  30
BISMARCK       SUNNY     39  31  72 E12       30.41R WCI  32
GRAND FORKS    MOSUNNY   38  27  64 N13       30.41R WCI  30
FARGO          SUNNY     38  29  70 N12       30.37R WCI  30
BUFFALO SD       N/A     41  37  86 SE8       30.22S
RAPID CITY     SUNNY     41  38  89 SE6       30.31R
$$

REGIONAL REPORTS...WYOMING/IDAHO/WASHINGTON

CITY           SKY/WX    TMP DP  RH WIND       PRES   REMARKS
GILLETTE       MOSUNNY   44  40  85 SE23G30   30.19F
SHERIDAN       PTSUNNY   45  42  89 CALM      30.14R
BUFFALO WY     SUNNY     45  42  89 SE5       30.15S
CODY           MOSUNNY   48  45  87 CALM      30.14F
YELLOWSTONE LA   N/A     34  32  92 CALM      30.30R
IDAHO FALLS    MOSUNNY   45  43  93 N3        30.12F
SALMON           N/A     50  46  87 CALM      30.09R
BOISE          CLOUDY    66  46  48 NE3       29.90S
SPOKANE        CLOUDY    61  50  67 E12       29.92R
$$

REGIONAL REPORTS...ALBERTA

CITY           SKY/WX    TMP DP  RH WIND       PRES   REMARKS
EDMONTON       SUNNY     50  32  50 SE10      30.09F
CALGARY        CLOUDY    45  37  76 SE5       30.05S
MEDICINE HAT   PTSUNNY   54  34  47 E6        30.06S
$$

REGIONAL REPORTS...SASKATCHEWAN

CITY           SKY/WX    TMP DP  RH WIND       PRES   REMARKS
SWIFT CURRENT  CLOUDY    45  32  61 SE16G24   30.18S
REGINA         PTSUNNY   39  30  70 SE20      30.34F WCI  30
SASKATOON      PTSUNNY   43  28  56 SE12      30.31F
$$


USA.gov is the U.S. government's official web portal to all federal, state and local government web resources and services.